This is the latest recevied weather packets stored in our database for station/object EA3CH. If no packets are shown the sender has not sent any weather packets the latest 10 day(s).
| Time | Temp. | Humidity | Pressure | Rain* | Wind** | Luminosity | Snow |
|---|---|---|---|---|---|---|---|
| 1787799605 | 20.56° C | 86% | 1013.2 hPa | 0 mm | - | 0 W/m² | - |
| 1787799604 | 20° C | 95% | 1013.3 hPa | 0 mm | - | 0 W/m² | - |
| 1787798710 | 20.56° C | 85% | 1013.4 hPa | 0 mm | - | 0 W/m² | - |
| 1787798710 | 20.56° C | 94% | 1013.6 hPa | 0 mm | - | 0 W/m² | - |
| 1787797806 | 21.67° C | 83% | 1013.3 hPa | 0 mm | - | 0 W/m² | - |
| 1787797804 | 21.11° C | 91% | 1013.6 hPa | 0 mm | - | 0 W/m² | - |
| 1787796906 | 22.22° C | 82% | 1013.6 hPa | 0 mm | - | 0 W/m² | - |
| 1787796904 | 21.67° C | 91% | 1013.8 hPa | 0 mm | - | 0 W/m² | - |
| 1787796006 | 21.67° C | 82% | 1013.5 hPa | 0 mm | - | 0 W/m² | - |
| 1787796003 | 21.67° C | 91% | 1013.7 hPa | 0 mm | - | 0 W/m² | - |
| 1787795106 | 21.67° C | 83% | 1013.5 hPa | 0 mm | - | 0 W/m² | - |
| 1787795104 | 21.67° C | 92% | 1013.8 hPa | 0 mm | - | 0 W/m² | - |
| 1787794204 | 21.67° C | 95% | 1014 hPa | 0 mm | - | 0 W/m² | - |
| 1787793303 | 21.67° C | 94% | 1013.9 hPa | 0 mm | - | 0 W/m² | - |
| 1787792410 | 21.67° C | 85% | 1014.1 hPa | 0 mm | - | 0 W/m² | - |
| 1787791506 | 21.67° C | 85% | 1014.4 hPa | 0 mm | - | 0 W/m² | - |
| 1787790605 | 21.67° C | 85% | 1014.9 hPa | 0 mm | - | 0 W/m² | - |
| 1787790604 | 21.11° C | 96% | 1015.2 hPa | 0 mm | - | 0 W/m² | - |
| 1787789704 | 21.11° C | 95% | 1015.2 hPa | 0 mm | - | 0 W/m² | - |
| 1787788808 | 21.67° C | 84% | 1015.2 hPa | 0 mm | - | 0 W/m² | - |
| 1787788807 | 21.11° C | 93% | 1015.4 hPa | 0 mm | - | 0 W/m² | - |
| 1787787905 | 21.67° C | 83% | 1015.1 hPa | 0 mm | - | 0 W/m² | - |
| 1787787904 | 21.11° C | 92% | 1015.3 hPa | 0 mm | - | 0 W/m² | - |
| 1787787005 | 21.11° C | 81% | 1015.1 hPa | 0 mm | - | 0 W/m² | - |
| 1787787003 | 20.56° C | 91% | 1015.3 hPa | 0 mm | - | 0 W/m² | - |
* Rain latest hour (hover to see other rain measurements)
** Current wind speed in m/s (hover to see current wind gust speed)